This is the latest recevied weather packets stored in our database for station/object SQ5DCP-1. If no packets are shown the sender has not sent any weather packets the latest 1 day(s).
| Time | Temp. | Humidity | Pressure | Rain* | Wind** | Luminosity | Snow |
|---|---|---|---|---|---|---|---|
| 1777984234 | 26.67° C | 27% | 1008.9 hPa | 0 mm | 0.89 m/s, 206° | - | - |
| 1777983933 | 26.67° C | 25% | 1009 hPa | 0 mm | 1.79 m/s, 247° | - | - |
| 1777983630 | 26.67° C | 25% | 1009 hPa | 0 mm | 2.24 m/s, 192° | - | - |
| 1777983329 | 26.67° C | 24% | 1009 hPa | 0 mm | 1.34 m/s, 252° | - | - |
| 1777983027 | 26.67° C | 24% | 1009 hPa | 0 mm | 2.24 m/s, 213° | - | - |
| 1777982725 | 27.22° C | 24% | 1009.1 hPa | 0 mm | 3.13 m/s, 209° | - | - |
| 1777982423 | 27.22° C | 26% | 1009 hPa | 0 mm | 1.79 m/s, 189° | - | - |
| 1777982121 | 27.22° C | 25% | 1009.1 hPa | 0 mm | 1.79 m/s, 223° | - | - |
| 1777981821 | 27.22° C | 25% | 1009.1 hPa | 0 mm | 3.58 m/s, 184° | - | - |
| 1777981517 | 27.22° C | 25% | 1009.2 hPa | 0 mm | 2.24 m/s, 188° | - | - |
| 1777981235 | 27.22° C | 25% | 1009.3 hPa | 0 mm | 2.68 m/s, 189° | - | - |
| 1777980934 | 26.67° C | 26% | 1009.3 hPa | 0 mm | 1.79 m/s, 230° | - | - |
| 1777980632 | 26.67° C | 26% | 1009.3 hPa | 0 mm | 1.79 m/s, 200° | - | - |
| 1777980329 | 27.22° C | 25% | 1009.4 hPa | 0 mm | 2.24 m/s, 177° | - | - |
| 1777980028 | 27.22° C | 24% | 1009.5 hPa | 0 mm | 2.68 m/s, 225° | - | - |
| 1777979726 | 27.22° C | 25% | 1009.5 hPa | 0 mm | 2.68 m/s, 208° | - | - |
| 1777979424 | 27.22° C | 24% | 1009.5 hPa | 0 mm | 2.24 m/s, 217° | - | - |
| 1777979121 | 27.22° C | 24% | 1009.6 hPa | 0 mm | 2.68 m/s, 231° | - | - |
| 1777978819 | 27.22° C | 25% | 1009.6 hPa | 0 mm | 1.79 m/s, 228° | - | - |
| 1777978517 | 27.22° C | 25% | 1009.6 hPa | 0 mm | 3.13 m/s, 184° | - | - |
| 1777978235 | 26.67° C | 26% | 1009.7 hPa | 0 mm | 3.13 m/s, 190° | - | - |
| 1777977933 | 26.67° C | 26% | 1009.8 hPa | 0 mm | 2.24 m/s, 180° | - | - |
| 1777977632 | 26.67° C | 27% | 1009.9 hPa | 0 mm | 2.68 m/s, 179° | - | - |
| 1777977330 | 26.67° C | 26% | 1009.9 hPa | 0 mm | 3.13 m/s, 182° | - | - |
| 1777977028 | 26.67° C | 27% | 1010 hPa | 0 mm | 2.68 m/s, 196° | - | - |
* Rain latest hour (hover to see other rain measurements)
** Current wind speed in m/s (hover to see current wind gust speed)